Regional Weather Roundup
Issued by NWS Sioux Falls, SD

Home | Current Version | Previous Version | Text Only | Print | Product List | Glossary Off
Versions: 1 2 3 4 5 6 7 8 9 10 11 12 13 14 15 16 17 18 19 20 21 22 23 24 25 26 27 28 29 30 31 32 33 34 35 36 37 38 39 40 41 42 43 44 45 46 47 48 49 50

000
ASUS43 KFSD 181602
RWRFSD

WEATHER ROUNDUP FOR SE SOUTH DAKOTA/SW MINNESOTA/NW IOWA
NATIONAL WEATHER SERVICE SIOUX FALLS SD
1100 AM CDT FRI APR 18 2014

NOTE: "FAIR" INDICATES FEW OR NO CLOUDS BELOW 12,000 FEET WITH NO
SIGNIFICANT WEATHER AND OR OBSTRUCTIONS TO VISIBILITY.


SDZ038>040-050-052>070-181700-
SOUTHEAST SOUTH DAKOTA

CITY           SKY/WX    TMP DP  RH WIND       PRES   REMARKS
CHAMBERLAIN      N/A     59  38  45 S22G31    29.95F
HURON          SUNNY     53  35  50 SE25G33   30.04F
MADISON        FAIR      45  34  65 SE20      30.14F
MITCHELL       SUNNY     55  37  50 S25G35    30.07F
SIOUX FALLS    MOSUNNY   50  33  52 SE16G24   30.17F
WINNER         FAIR      60  38  43 S16G28    29.93R
YANKTON          N/A     55  34  44 SE23G29   30.14F
$$

MNZ071-072-080-081-089-090-097-098-181700-
SOUTHWEST MINNESOTA

CITY           SKY/WX    TMP DP  RH WIND       PRES   REMARKS
FAIRMONT       CLOUDY    39  30  70 SE15      30.34R
JACKSON        PTSUNNY   43  32  65 SE15      30.29S
LUVERNE        PTSUNNY   46  34  61 SE17      30.23F
MARSHALL       CLOUDY    39  30  70 SE15      30.26S
MONTEVIDEO     PTSUNNY   36  30  80 SE15      30.29F
PIPESTONE      CLOUDY    43  34  70 SE20      30.19F
REDWOOD FALLS  CLOUDY    41  33  73 SE17      30.31S
TRACY          CLOUDY    40  34  77 SE13      30.28R
WINDOM         CLOUDY    41  32  70 SE14      30.29S
WORTHINGTON    CLOUDY    45  28  53 SE17      30.28R
$$

IAZ001>003-012>014-020>022-031-032-NEZ013-014-SDZ071-181700-
NORTHWEST IOWA

CITY           SKY/WX    TMP DP  RH WIND       PRES   REMARKS
DENISON        SUNNY     52  32  46 S15G22    30.26F
ESTHERVILLE    PTSUNNY   44  33  65 SE15      30.30S
SIOUX CITY     SUNNY     53  34  48 SE13      30.24S
SPENCER        PTSUNNY   47  33  58 SE17      30.28F
STORM LAKE     SUNNY     48  34  57 SE15G21   30.27F
$$

ABBREVIATIONS USED IN REMARKS
   TC - TEMPERATURE IN CELSIUS
  WCI - WIND CHILL INDEX
   HX - HEAT INDEX
  VSB - VISIBILITY




USA.gov is the U.S. government's official web portal to all federal, state and local government web resources and services.